Wind_Speed
16 17 19 16 16 17 18 14 14 15 16 14 13 14 15 16 17 17 14 15 13 11 11 13 13 16 17 18 20 20 22 24 25 28 29 34 34 36 34 32 29 30 30 31 33
15 18 19 17 15 14 15 15 13 13 14 12 11 14 17 16 16 14 14 14 13 11 12 13 14 16 16 17 18 19 21 24 26 29 31 31 31 32 36 37 37 34 34 31 35
15 14 15 13 15 14 14 13 13 13 13 12 13 14 14 14 15 12 12 13 12 12 13 14 15 16 17 17 18 19 21 24 27 30 32 32 27 28 28 31 32 33 35 36 39
17 17 15 14 17 18 15 15 14 13 12 13 12 11 13 13 11 11 12 14 13 12 13 14 14 15 15 17 17 19 22 24 28 32 34 32 29 27 26 27 28 32 35 37 36
17 17 17 16 15 17 20 17 14 13 13 12 11 11 11 11 11 12 13 13 12 12 13 13 15 16 16 15 17 19 22 25 27 33 36 31 26 23 22 24 25 25 28 29 30
20 18 17 17 16 16 17 17 15 13 14 12 12 12 11 11 12 12 13 13 12 13 13 15 16 16 15 15 17 19 21 24 27 32 35 29 25 19 22 26 28 27 28 26 29
23 21 18 19 18 17 17 17 14 13 13 13 13 13 13 13 13 12 13 13 14 14 14 15 16 16 15 15 17 19 21 24 26 29 30 25 25 20 22 23 24 27 30 31 32
24 23 21 19 19 19 18 18 15 14 14 14 15 15 15 15 13 14 14 14 15 15 15 15 16 16 16 15 16 18 20 24 25 27 27 24 19 20 21 26 27 26 25 28 32
25 24 23 22 21 21 20 18 17 15 16 16 16 15 16 16 15 15 15 15 16 16 16 15 17 16 16 16 17 19 21 23 24 28 29 25 22 22 25 26 30 32 32 33 35
29 28 26 25 24 24 23 22 18 17 17 18 17 15 16 16 16 15 17 16 16 17 17 16 16 15 16 15 16 20 22 24 24 28 30 27 25 26 31 30 25 28 29 31 33
32 31 30 28 27 26 26 24 22 19 19 20 18 17 17 17 15 15 15 15 16 17 17 16 15 15 14 13 13 18 20 22 22 26 29 29 28 29 29 27 26 27 27 31 34
36 35 35 34 30 29 28 28 26 24 22 22 21 18 17 16 14 13 12 13 13 13 14 16 16 15 13 13 13 16 18 21 22 26 28 28 29 31 32 30 29 30 31 28 29
41 39 38 39 36 34 32 31 30 29 27 26 23 21 20 18 15 13 13 12 13 14 14 14 16 14 13 14 13 14 16 19 22 25 27 27 27 30 32 31 33 34 33 31 25
47 44 41 42 42 38 37 34 35 33 33 29 28 27 23 22 18 15 13 11 10 12 14 14 14 14 13 13 11 14 15 17 19 23 27 28 26 29 30 31 33 31 30 24 24
53 50 48 45 45 44 41 38 39 37 40 33 31 29 27 25 21 19 16 13 11 10 10 11 12 12 12 11 10 11 13 15 18 21 25 27 28 29 29 30 30 27 27 24 20
58 57 53 51 50 50 47 44 43 45 46 35 33 31 31 28 26 24 20 17 13 11 9 8 9 11 11 8 9 11 12 14 15 18 22 25 26 28 31 30 27 26 29 22 18
65 62 60 55 56 56 55 51 52 57 46 41 34 31 34 33 30 27 24 20 16 12 10 8 8 9 9 8 9 11 13 14 13 16 19 22 24 28 28 31 29 25 28 22 16
70 68 67 63 60 62 61 61 64 60 47 46 39 37 34 33 31 29 26 22 19 15 10 8 7 7 8 8 9 11 12 14 14 14 17 20 22 24 26 27 28 27 27 23 21
71 71 71 65 66 65 68 72 68 63 48 47 45 42 40 33 33 31 27 25 22 17 12 9 7 7 8 9 10 11 12 12 14 13 14 17 19 20 23 25 25 24 25 23 21
79 74 73 70 68 71 74 77 71 64 54 53 50 46 42 37 38 33 31 27 25 21 17 13 10 7 7 8 9 10 11 12 12 13 14 15 16 19 21 22 22 21 21 23 22
83 77 74 74 69 71 77 77 76 67 58 59 54 50 49 47 40 36 33 29 27 25 23 19 14 10 7 7 7 8 9 10 11 12 14 15 14 16 18 20 19 18 18 19 19
84 81 75 73 68 77 70 73 75 71 61 61 59 55 52 50 46 42 38 34 31 30 27 25 21 15 9 6 6 6 7 10 12 11 12 14 13 11 13 16 17 16 14 14 16
83 82 75 77 79 70 67 71 75 77 66 63 63 59 54 53 51 48 41 38 36 34 32 28 26 21 13 9 6 7 7 9 13 12 11 14 14 10 10 12 14 14 14 11 10
77 80 77 80 82 80 57 62 74 73 74 67 64 60 59 54 54 50 45 42 39 37 34 33 29 26 20 14 9 8 8 10 11 13 10 11 16 13 11 10 10 11 13 12 11
74 77 77 79 80 83 86 88 52 72 75 70 69 65 63 60 57 54 50 46 42 40 37 35 31 28 25 19 14 10 9 10 10 11 12 11 13 13 11 10 9 9 9 10 10
66 71 74 76 79 86 91 83 90 53 72 73 74 68 64 64 59 53 48 47 44 41 39 37 34 31 28 24 20 15 10 9 10 11 13 14 15 14 11 10 10 9 8 9 9
52 62 61 72 76 79 86 77 80 74 49 73 72 71 67 63 57 53 47 45 45 45 45 42 38 34 31 26 25 19 16 12 10 12 13 15 15 13 13 10 10 10 9 9 9
Wind_Direction
292 302 301 298 288 288 288 278 277 273 265 262 256 256 258 255 258 252 258 260 258 256 260 268 271 270 273 278 282 290 294 297 300 302 302 295 285 281 273 271 270 262 256 259 260
286 286 303 290 277 290 281 282 274 273 270 272 269 265 262 258 255 259 259 263 260 263 268 266 263 268 274 278 287 298 297 300 306 307 306 298 289 279 277 274 269 262 261 261 260
286 288 297 294 278 278 287 284 277 271 268 268 269 264 259 251 255 257 261 260 261 261 265 263 269 280 283 289 296 305 303 305 309 310 311 305 295 286 281 275 270 266 265 265 262
280 291 290 285 290 271 286 279 272 271 267 271 264 256 258 252 260 263 266 266 260 263 266 265 272 280 286 291 298 306 307 312 314 315 317 313 313 298 286 280 271 267 262 262 269
267 280 282 282 278 254 276 272 274 271 268 265 257 253 255 264 266 267 266 260 263 261 263 270 278 280 287 296 303 307 313 313 319 320 318 321 316 299 287 283 276 272 264 260 260
265 270 270 270 274 265 268 266 267 266 264 253 250 250 257 261 260 262 262 258 258 258 266 274 276 279 290 298 303 308 315 316 323 320 319 323 319 301 285 276 271 272 273 267 256
262 263 261 265 271 264 259 261 265 265 260 251 243 251 255 257 261 259 261 256 259 265 270 276 281 285 293 299 303 310 316 324 322 319 320 326 323 302 293 288 282 275 269 269 267
262 261 258 259 265 264 259 261 262 261 258 258 251 251 253 254 257 258 258 259 262 262 269 275 285 288 292 298 301 307 318 322 320 317 322 331 317 301 294 292 288 283 279 271 267
258 253 256 256 257 257 259 258 263 261 257 253 254 253 251 252 253 257 258 258 258 262 267 278 283 284 291 297 306 315 322 320 321 322 328 330 322 311 304 301 297 293 282 268 263
262 255 248 246 252 254 254 255 253 261 257 254 250 251 249 246 251 257 263 266 267 267 270 277 277 279 288 294 307 314 320 322 327 326 330 332 330 327 326 321 312 302 294 286 274
259 258 253 245 246 243 251 249 251 249 253 251 250 251 247 244 246 252 257 262 271 274 273 272 270 273 281 288 301 311 316 322 327 329 335 332 333 334 329 320 314 314 302 287 283
256 253 254 249 243 242 243 244 245 247 246 246 249 240 235 238 240 249 260 271 271 271 270 268 270 274 284 288 295 307 317 323 333 335 336 336 338 336 331 327 325 318 308 290 274
253 251 250 250 246 239 239 242 241 242 242 244 241 234 229 230 235 244 252 264 273 274 273 273 271 273 282 283 296 306 317 329 334 336 340 343 340 339 334 331 334 328 323 320 303
254 250 245 247 247 239 237 237 240 239 241 239 234 229 226 227 232 239 249 264 278 276 274 274 268 268 271 279 295 309 320 333 334 341 344 346 349 345 342 339 339 335 339 328 313
251 250 246 242 243 242 237 237 238 238 241 236 235 230 226 228 231 239 244 256 276 273 274 277 271 272 268 272 289 306 319 330 341 343 346 349 353 354 354 353 348 355 347 353 1
246 247 246 242 240 241 238 234 235 235 236 236 233 230 229 228 230 237 242 245 259 273 272 278 278 271 263 267 288 304 318 330 338 345 349 349 355 359 0 1 2 10 6 12 25
247 244 242 241 240 237 239 235 234 233 230 233 234 231 227 229 232 235 240 243 247 258 259 272 282 273 267 273 288 301 313 325 336 349 349 350 358 1 2 5 12 15 19 19 42
246 244 243 238 237 237 235 236 233 233 227 232 230 234 229 229 230 231 235 240 244 250 258 257 257 267 271 279 292 302 310 322 336 345 347 351 360 3 10 8 17 28 37 52 51
247 246 244 241 236 232 234 236 233 234 227 229 230 232 231 227 229 229 231 235 240 244 247 245 255 267 278 288 301 307 308 319 326 334 342 349 358 5 12 12 19 27 39 42 43
254 245 243 242 242 233 230 230 233 233 228 229 226 229 232 234 232 232 232 230 236 239 236 240 252 269 285 293 300 310 311 316 323 331 335 344 357 4 11 16 15 28 37 46 45
254 249 243 237 243 239 237 234 231 231 226 228 225 226 227 231 232 229 228 226 232 238 237 236 244 260 275 291 306 327 327 320 322 330 331 335 351 4 8 12 16 21 38 46 52
251 249 239 233 233 241 241 237 233 231 228 226 228 223 225 229 233 233 232 228 230 234 239 237 238 250 266 290 292 316 351 347 334 327 326 324 342 355 6 6 14 15 27 45 51
249 248 240 224 222 230 231 240 236 230 227 226 225 228 222 227 229 232 230 229 228 230 233 237 239 242 253 273 283 294 314 329 333 327 321 321 331 342 357 2 6 12 17 36 50
246 245 241 227 225 225 224 238 233 231 224 224 225 225 227 222 227 226 229 229 229 230 231 233 236 237 242 254 269 291 314 322 332 330 325 322 321 339 337 351 356 3 12 20 43
242 241 239 236 226 224 228 231 232 230 227 219 224 221 223 224 223 225 225 226 225 226 229 231 233 235 237 242 257 272 297 317 324 332 332 320 312 323 329 333 338 348 0 8 27
237 236 234 234 231 224 223 227 229 233 229 220 218 223 222 224 223 228 228 224 223 225 228 230 230 231 233 234 242 254 279 303 318 319 324 330 319 307 319 327 323 325 341 344 1
234 229 231 233 232 226 224 220 228 226 226 225 215 221 221 222 225 228 226 225 220 218 222 225 226 226 228 232 238 241 254 271 295 315 319 316 324 308 303 314 315 317 329 324 330
Height
5843 5843 5842 5840 5840 5839 5838 5838 5837 5838 5839 5837 5837 5838 5838 5839 5840 5841 5838 5839 5838 5835 5834 5834 5834 5836 5836 5835 5833 5832 5829 5826 5824 5820 5815 5809 5805 5801 5801 5801 5800 5799 5797 5797 5797
5840 5840 5840 5839 5837 5837 5838 5837 5836 5836 5836 5834 5835 5836 5837 5837 5837 5836 5835 5835 5835 5832 5832 5833 5833 5833 5833 5832 5830 5828 5825 5821 5817 5813 5809 5804 5799 5796 5794 5792 5791 5792 5790 5789 5788
5837 5836 5835 5836 5836 5834 5833 5833 5834 5834 5833 5833 5834 5834 5834 5835 5835 5832 5832 5833 5832 5831 5831 5831 5831 5831 5830 5829 5826 5824 5820 5816 5813 5808 5803 5798 5793 5790 5788 5784 5782 5782 5781 5779 5778
5834 5833 5832 5832 5832 5832 5831 5831 5832 5832 5831 5832 5832 5832 5832 5832 5831 5829 5830 5830 5829 5828 5829 5829 5829 5828 5827 5826 5823 5820 5816 5811 5807 5802 5797 5792 5788 5783 5780 5779 5776 5774 5772 5770 5770
5830 5830 5829 5829 5829 5830 5830 5830 5829 5829 5829 5829 5829 5829 5829 5829 5828 5827 5827 5828 5827 5826 5827 5826 5826 5825 5824 5822 5819 5816 5812 5808 5804 5797 5791 5786 5783 5778 5775 5772 5769 5767 5764 5763 5761
5827 5826 5826 5826 5825 5826 5827 5828 5827 5826 5827 5826 5826 5826 5826 5827 5825 5825 5825 5825 5825 5824 5824 5824 5823 5822 5820 5818 5816 5813 5809 5804 5799 5794 5788 5783 5779 5774 5771 5767 5764 5761 5758 5755 5753
5824 5822 5823 5822 5823 5822 5822 5824 5824 5824 5824 5824 5824 5823 5823 5824 5823 5822 5822 5822 5822 5822 5821 5821 5819 5818 5817 5815 5812 5808 5805 5801 5798 5791 5786 5779 5774 5770 5766 5761 5757 5754 5752 5750 5746
5819 5820 5818 5817 5818 5819 5818 5820 5820 5820 5821 5822 5821 5820 5819 5820 5820 5820 5820 5819 5819 5819 5818 5817 5815 5814 5813 5811 5809 5806 5803 5798 5794 5789 5783 5778 5772 5766 5761 5756 5752 5749 5746 5743 5740
5812 5812 5814 5816 5814 5814 5815 5815 5817 5816 5817 5818 5819 5818 5817 5817 5816 5817 5817 5816 5815 5815 5814 5813 5812 5811 5809 5807 5806 5802 5799 5796 5791 5785 5778 5773 5767 5762 5758 5752 5746 5741 5737 5733 5731
5811 5808 5804 5807 5810 5811 5810 5812 5812 5813 5814 5815 5815 5816 5815 5814 5813 5813 5813 5812 5811 5811 5811 5810 5809 5807 5805 5804 5802 5799 5796 5792 5788 5782 5774 5768 5763 5759 5751 5744 5740 5735 5730 5726 5722
5804 5805 5804 5800 5801 5803 5806 5807 5809 5808 5810 5811 5812 5811 5810 5810 5810 5810 5810 5810 5808 5807 5806 5806 5806 5804 5803 5801 5799 5797 5794 5790 5785 5778 5772 5765 5760 5754 5748 5742 5736 5732 5726 5718 5713
5794 5795 5798 5798 5794 5796 5798 5800 5802 5804 5804 5806 5807 5807 5807 5807 5807 5806 5806 5806 5806 5804 5802 5802 5801 5800 5799 5798 5797 5794 5791 5787 5782 5775 5770 5764 5757 5750 5743 5737 5731 5724 5716 5708 5703
5782 5785 5788 5790 5790 5788 5789 5794 5795 5796 5798 5801 5802 5803 5803 5803 5803 5803 5804 5803 5802 5800 5800 5798 5798 5796 5796 5795 5794 5791 5788 5783 5778 5773 5768 5763 5756 5749 5741 5734 5726 5715 5707 5699 5693
5774 5775 5776 5780 5785 5781 5781 5785 5787 5789 5790 5794 5796 5797 5799 5798 5800 5800 5800 5800 5799 5798 5796 5796 5795 5794 5793 5792 5791 5788 5785 5780 5776 5771 5766 5760 5757 5748 5740 5731 5722 5712 5704 5695 5684
5759 5762 5765 5766 5772 5774 5774 5776 5779 5782 5780 5787 5788 5791 5793 5795 5796 5796 5796 5796 5796 5795 5795 5794 5792 5791 5790 5789 5787 5785 5782 5778 5773 5769 5765 5759 5754 5747 5740 5731 5721 5712 5703 5693 5682
5743 5748 5750 5754 5759 5764 5763 5763 5768 5770 5768 5776 5781 5784 5787 5789 5790 5792 5793 5793 5793 5792 5791 5790 5789 5788 5787 5786 5784 5782 5778 5775 5771 5768 5763 5759 5754 5747 5740 5732 5722 5714 5704 5696 5688
5729 5730 5734 5738 5744 5747 5751 5751 5752 5747 5764 5770 5775 5777 5779 5782 5784 5786 5788 5789 5790 5790 5788 5787 5786 5785 5784 5783 5781 5779 5776 5773 5771 5765 5762 5758 5753 5747 5741 5733 5725 5717 5709 5702 5697
5709 5712 5717 5721 5724 5730 5734 5735 5730 5738 5756 5760 5767 5769 5772 5774 5778 5780 5782 5784 5786 5786 5785 5785 5785 5783 5782 5781 5779 5776 5774 5771 5767 5764 5760 5757 5753 5748 5742 5736 5729 5722 5715 5709 5705
5687 5693 5699 5707 5701 5708 5714 5712 5717 5728 5748 5751 5756 5759 5765 5767 5771 5773 5776 5779 5781 5782 5783 5781 5781 5780 5779 5778 5776 5773 5772 5769 5766 5763 5759 5756 5753 5749 5743 5738 5733 5728 5721 5716 5712
5660 5668 5681 5689 5684 5686 5687 5700 5705 5719 5735 5738 5743 5750 5757 5761 5763 5766 5769 5774 5776 5778 5779 5779 5778 5777 5776 5775 5773 5770 5769 5767 5764 5762 5757 5755 5752 5748 5744 5740 5736 5732 5727 5722 5718
5632 5641 5662 5668 5667 5664 5667 5683 5694 5705 5718 5724 5731 5737 5745 5750 5755 5758 5762 5768 5770 5772 5774 5775 5775 5776 5773 5772 5770 5768 5766 5765 5763 5760 5756 5753 5751 5747 5744 5741 5738 5734 5731 5728 5725
5605 5615 5633 5641 5647 5643 5659 5670 5681 5692 5704 5710 5717 5724 5732 5739 5746 5751 5755 5759 5762 5765 5768 5769 5770 5771 5770 5768 5767 5766 5764 5763 5760 5758 5754 5752 5751 5747 5744 5742 5739 5736 5734 5731 5729
5578 5592 5605 5614 5619 5628 5639 5651 5659 5672 5687 5696 5702 5712 5719 5727 5734 5741 5747 5751 5754 5757 5760 5763 5765 5766 5766 5766 5765 5763 5762 5760 5758 5756 5753 5751 5750 5747 5743 5742 5740 5738 5735 5733 5730
5555 5562 5574 5586 5598 5613 5622 5630 5639 5655 5665 5678 5687 5697 5707 5713 5721 5729 5737 5741 5745 5750 5753 5755 5758 5761 5762 5762 5761 5760 5758 5757 5756 5754 5752 5749 5747 5746 5743 5741 5740 5738 5736 5734 5732
5528 5539 5550 5563 5582 5592 5607 5615 5624 5634 5645 5660 5670 5681 5691 5699 5707 5716 5725 5730 5735 5740 5745 5748 5752 5754 5754 5756 5756 5756 5756 5755 5753 5752 5750 5748 5745 5744 5743 5740 5738 5738 5736 5735 5733
5508 5520 5531 5544 5557 5572 5582 5593 5608 5622 5629 5644 5655 5669 5677 5686 5696 5707 5717 5721 5726 5732 5736 5740 5743 5746 5748 5749 5751 5752 5752 5752 5750 5749 5748 5746 5743 5741 5741 5739 5737 5736 5735 5734 5732
5493 5505 5515 5528 5536 5549 5562 5585 5599 5610 5612 5627 5642 5651 5662 5676 5686 5693 5703 5709 5714 5718 5723 5728 5733 5738 5740 5742 5743 5748 5748 5748 5747 5746 5745 5743 5742 5740 5738 5738 5736 5735 5734 5733 5731